This demonstration page uses our WeatherBlox Daily Observations layout. Learn more.

Left ArrowRight Arrow

40.92945, -100.16068

Hourly Observations for April 27, 2016

Temp ( °F °C ) Dew Point ( °F °C ) Humidity (%) Winds ( mph kmh ) Pressure ( in mb ) Visibility ( mi km ) Precip ( " mm )
12:15 am 00:15 Cloudy 49 9.7 45 7.3 85 85 N 21 33 29.62 1003 10 16 N/A
12:35 am 00:35 Cloudy 50 9.9 46 7.5 85 85 N 10 17 29.62 1003 10 16 N/A
12:55 am 00:55 Cloudy 50 10 46 7.5 85 85 N 16 26 29.62 1003 10 16 N/A
1:15 am 01:15 Cloudy 49 9.7 46 7.5 86 86 NNW 16 26 29.62 1003 10 16 N/A
1:35 am 01:35 Mostly Cloudy 49 9.6 45 7.3 86 86 NNW 10 17 29.65 1004 10 16 N/A
1:55 am 01:55 Cloudy 50 9.8 46 7.5 86 86 NNW 13 20 29.59 1002 10 16 N/A
2:15 am 02:15 Cloudy with Thunderstorms 49 9.6 46 7.7 88 88 N 17 28 29.56 1001 7 11 0.09 2.29
2:35 am 02:35 Cloudy with Rain 49 9.5 46 8 90 90 NW 9 15 29.59 1002 7 11 0.14 3.56
2:55 am 02:55 Cloudy with Heavy Rain 48 8.8 46 7.5 92 92 W 12 19 29.59 1002 3 5 0.28 7.11
3:15 am 03:15 Cloudy with Heavy Snow 47 8.5 45 7.3 92 92 W 14 22 29.59 1002 1 2 0.27 6.86
3:35 am 03:35 Cloudy with Heavy Snow 47 8.5 45 7.3 92 92 WNW 12 19 29.59 1002 2 2 0.64 16.26
3:55 am 03:55 Cloudy with Snow 48 8.9 46 7.6 92 92 N 9 15 29.59 1002 1 2 0.98 24.89
4:15 am 04:15 Cloudy with Rain 48 8.9 46 7.6 92 92 N 23 37 29.59 1002 3 5 0.12 3.05
4:35 am 04:35 Cloudy with Light Rain 47 8.5 45 7.2 92 92 N 22 35 29.59 1002 4 6 0.19 4.83
4:55 am 04:55 Cloudy with Rain 47 8.2 44 6.8 91 91 N 26 43 29.59 1002 5 8 0.24 6.10
5:15 am 05:15 Windy with Snow Likely 47 8.2 44 6.7 90 90 NNW 25 41 29.59 1002 4 6 0.05 1.27
5:35 am 05:35 Windy with Snow Likely 46 8 43 6.1 88 88 NNW 26 43 29.59 1002 3 4 0.14 3.56
5:55 am 05:55 Cloudy with Heavy Snow 46 7.9 43 6.1 89 89 NNW 22 35 29.59 1002 3 4 0.25 6.35
6:15 am 06:15 Windy with Snow Likely 46 7.7 43 6 89 89 NNW 23 37 29.59 1002 2 3 0.11 2.79
6:35 am 06:35 Windy with Snow Likely 46 7.6 43 6.1 90 90 NNW 21 33 29.59 1002 3 5 0.21 5.33
6:55 am 06:55 Cloudy with Light Rain 46 7.5 43 6 90 90 NW 20 31 29.56 1001 3 5 0.27 6.86
7:15 am 07:15 Cloudy with Light Rain 46 7.5 43 6.1 91 91 NW 18 30 29.56 1001 3 5 0.05 1.27
7:35 am 07:35 Cloudy with Light Rain 45 7.3 43 5.9 91 91 NW 18 30 29.56 1001 4 6 0.09 2.29
7:55 am 07:55 Cloudy with Light Rain 45 7.2 42 5.7 90 90 NW 22 35 29.56 1001 2 3 0.13 3.30
8:15 am 08:15 Cloudy with Light Rain 45 7.1 42 5.5 90 90 NW 24 39 29.56 1001 3 4 0.03 0.76
8:35 am 08:35 Cloudy with Light Rain 44 6.8 41 5 88 88 NW 23 37 29.56 1001 3 5 0.05 1.27
8:55 am 08:55 Cloudy with Light Rain 44 6.4 40 4.4 87 87 NW 24 39 29.56 1001 7 11 0.07 1.78
9:15 am 09:15 Cloudy with Light Rain 43 6 38 3.6 85 85 NW 29 46 29.56 1001 10 16 N/A
9:35 am 09:35 Cloudy with Light Rain 42 5.5 38 3.4 87 87 NW 26 43 29.62 1003 10 16 0.01 0.25
9:55 am 09:55 Cloudy with Light Rain 42 5.5 38 3.2 85 85 NW 22 35 29.62 1003 10 16 0.01 0.25
10:15 am 10:15 Cloudy with Light Rain 41 5 37 2.8 86 86 NW 28 44 29.59 1002 10 16 N/A
10:35 am 10:35 Cloudy with Light Rain 40 4.7 37 2.5 86 86 NW 29 46 29.59 1002 10 16 N/A
10:55 am 10:55 Cloudy with Light Rain 40 4.2 36 2.2 87 87 NW 30 48 29.59 1002 10 16 0.01 0.25
11:15 am 11:15 Cloudy with Drizzle 39 4 36 2.1 88 88 NW 24 39 29.59 1002 10 16 N/A
11:35 am 11:35 Cloudy 40 4.5 36 2.4 86 86 NW 32 52 29.59 1002 10 16 N/A
11:55 am 11:55 Cloudy 41 5 37 2.6 85 85 NNW 33 54 29.62 1003 10 16 N/A
12:15 pm 12:15 Cloudy 42 5.5 37 2.9 84 84 NNW 25 41 29.62 1003 10 16 N/A
12:35 pm 12:35 Cloudy 42 5.6 37 2.7 82 82 NNW 29 46 29.62 1003 10 16 N/A
12:55 pm 12:55 Cloudy 42 5.7 37 2.6 81 81 NNW 25 41 29.62 1003 10 16 N/A
1:15 pm 13:15 Cloudy with Drizzle 42 5.6 37 2.5 81 81 NW 30 48 29.65 1004 10 16 N/A
1:35 pm 13:35 Cloudy with Drizzle 42 5.5 37 2.5 81 81 NW 32 52 29.65 1004 10 16 N/A
1:55 pm 13:55 Cloudy with Light Rain 42 5.5 37 2.9 84 84 NW 31 50 29.65 1004 7 11 N/A
2:15 pm 14:15 Cloudy with Drizzle 43 5.9 38 3.4 84 84 NW 32 52 29.65 1004 7 11 N/A
2:35 pm 14:35 Cloudy 43 5.9 38 3.1 82 82 NW 33 54 29.65 1004 10 16 N/A
2:55 pm 14:55 Cloudy 43 6.2 38 3.1 81 81 NW 26 43 29.68 1005 10 16 N/A
3:15 pm 15:15 Cloudy 44 6.5 37 3 79 79 NW 36 57 29.65 1004 10 16 N/A
3:35 pm 15:35 Cloudy 43 6.3 37 2.7 78 78 NW 31 50 29.68 1005 10 16 N/A
3:55 pm 15:55 Cloudy 43 6.1 37 2.7 79 79 NW 32 52 29.71 1006 10 16 N/A
4:15 pm 16:15 Cloudy 42 5.7 36 2.2 78 78 NW 30 48 29.71 1006 10 16 N/A
4:35 pm 16:35 Cloudy with Light Rain 41 5.2 36 2.1 81 81 NW 28 44 29.71 1006 10 16 N/A
4:55 pm 16:55 Cloudy with Light Rain 40 4.7 36 2.1 83 83 NW 26 43 29.71 1006 4 6 0.01 0.25
5:15 pm 17:15 Cloudy with Light Rain 40 4.7 36 2.4 85 85 NW 28 44 29.71 1006 7 11 0.02 0.51
5:35 pm 17:35 Cloudy with Light Rain 40 4.7 36 2.4 85 85 NW 28 44 29.71 1006 7 11 0.03 0.76
5:55 pm 17:55 Cloudy with Light Rain 40 4.7 36 2.1 83 83 NW 28 44 29.74 1007 10 16 0.03 0.76
6:15 pm 18:15 Cloudy with Rain 41 5 37 2.5 84 84 NW 26 43 29.74 1007 10 16 N/A
6:35 pm 18:35 Cloudy with Drizzle 41 5 36 2.3 83 83 NNW 23 37 29.74 1007 10 16 N/A
6:55 pm 18:55 Cloudy 41 5 37 2.5 84 84 NNW 23 37 29.74 1007 10 16 N/A
7:15 pm 19:15 Cloudy 41 5 36 2.1 82 82 NNW 23 37 29.74 1007 10 16 N/A
7:35 pm 19:35 Cloudy 41 5 37 2.5 84 84 NNW 16 26 29.74 1007 10 16 N/A
7:55 pm 19:55 Mostly Cloudy 41 4.9 36 2 82 82 NNW 18 30 29.74 1007 10 16 N/A
8:15 pm 20:15 Cloudy 40 4.7 35 1.8 82 82 NNW 17 28 29.74 1007 10 16 N/A
8:35 pm 20:35 Cloudy 40 4.3 34 1.2 80 80 NNW 22 35 29.77 1008 10 16 N/A
8:55 pm 20:55 Cloudy 39 4 34 0.9 80 80 NW 21 33 29.80 1009 10 16 N/A
9:15 pm 21:15 Cloudy with Drizzle 39 3.9 34 0.9 81 81 NW 18 30 29.83 1010 10 16 N/A
9:35 pm 21:35 Cloudy 38 3.5 34 0.9 83 83 NW 18 30 29.83 1010 10 16 N/A
9:55 pm 21:55 Cloudy 38 3.6 33 0.7 82 82 NW 18 30 29.83 1010 10 16 N/A
10:15 pm 22:15 Mostly Cloudy 38 3.6 33 0.5 80 80 NW 18 30 29.85 1011 10 16 N/A
10:35 pm 22:35 Partly Cloudy 38 3.4 33 0.5 82 82 NW 16 26 29.83 1010 10 16 N/A
10:55 pm 22:55 Partly Cloudy 38 3.1 33 0.4 83 83 NW 16 26 29.85 1011 10 16 N/A
11:15 pm 23:15 Clear 37 2.7 32 0.1 83 83 NW 15 24 29.85 1011 10 16 N/A
11:35 pm 23:35 Clear 37 2.5 32 0.1 84 84 NW 15 24 29.85 1011 10 16 N/A
11:55 pm 23:55 Clear 36 2.4 32 0.1 85 85 WNW 16 26 29.88 1012 10 16 N/A

Powered by AerisWeather